Weather History for Homer, AK

Change the Weather History Date:

Wednesday, November 20, 2013

  Actual Average Record
Temperature  
Mean Temperature 20 °F -  
Max Temperature 23 °F 35 °F 51 °F (1949)
Min Temperature 16 °F 24 °F -1 °F (1942)
Degree Days  
Heating Degree Days 46    
Moisture  
Dew Point 7 °F    
Average Humidity 60    
Maximum Humidity 74    
Minimum Humidity 42    
Precipitation  
Precipitation 0.00 in - - ()
Sea Level Pressure  
Sea Level Pressure 29.94 in    
Wind  
Wind Speed 6 mph (NE)    
Max Wind Speed 14 mph    
Max Gust Speed -    
Visibility 9 miles    
Events Snow    
Averages and records for this station are not official NWS values.
T = Trace of Precipitation, MM = Missing Value Source: NWS Daily Summary

Daily Weather History Graph

Daily Weather History Graph

Search for Another Location

Airport:

Trip Planner

Search our weather history database for the weather conditions in past years. The results will help you decide how hot, cold, wet, or windy it might be!

Date:

Astronomy

Nov. 20, 2013 Rise Set
Actual Time 9:15 AM AKST 4:27 PM AKST
Civil Twilight 8:24 AM AKST 5:17 PM AKST
Nautical Twilight 7:32 AM AKST 6:09 PM AKST
Astronomical Twilight 6:43 AM AKST 6:58 PM AKST
Moon 7:20 PM AKST 11:48 AM AKST
Length of Visible Light 8h 52m
Length of Day
7h 12m
Waning Gibbous, 90% of the Moon is Illuminated
Nov 20
Waning Gibbous
Nov 25
Last Quarter
Dec 2
New
Dec 9
First Quarter
Dec 17
Full

Hourly Weather History & Observations

Time (AKST) Temp. Windchill Dew Point Humidity Pressure Visibility Wind Dir Wind Speed Gust Speed Precip Events Conditions
12:26 AM 21.2 °F 16.4 °F 12.2 °F 68% 29.96 in 10.0 mi East 3.5 mph - 0.00 in   Overcast
12:53 AM 21.9 °F 17.2 °F 12.9 °F 68% 29.97 in 10.0 mi ENE 3.5 mph - 0.00 in   Overcast
1:35 AM 23.0 °F - 12.2 °F 63% 29.96 in 6.0 mi Calm Calm - 0.00 in Snow Light Snow
1:45 AM 21.2 °F - 14.0 °F 74% 29.96 in 1.8 mi Calm Calm - 0.00 in Snow Light Snow
1:53 AM 21.9 °F 15.7 °F 14.0 °F 72% 29.96 in 2.0 mi ENE 4.6 mph - 0.00 in Snow Light Snow
1:58 AM 21.2 °F 14.9 °F 14.0 °F 74% 29.96 in 3.0 mi NE 4.6 mph - 0.00 in Snow Light Snow
3:53 AM 21.9 °F 15.7 °F 10.9 °F 63% 29.96 in 10.0 mi Variable 4.6 mph - 0.00 in   Overcast
4:53 AM 21.9 °F 14.5 °F 10.0 °F 60% 29.96 in 10.0 mi North 5.8 mph - 0.00 in   Overcast
5:53 AM 21.0 °F 14.6 °F 9.0 °F 60% 29.97 in 9.0 mi NNE 4.6 mph - 0.00 in Snow Light Snow
6:53 AM 19.9 °F 10.1 °F 12.0 °F 71% 29.98 in 8.0 mi NE 8.1 mph - 0.00 in   Overcast
7:53 AM 18.0 °F 4.2 °F 8.1 °F 65% 29.98 in 10.0 mi ENE 13.8 mph - N/A   Mostly Cloudy
8:53 AM 17.1 °F 3.6 °F 7.0 °F 65% 29.99 in 10.0 mi NE 12.7 mph - N/A   Overcast
9:53 AM 16.0 °F 5.3 °F 5.0 °F 62% 29.98 in 10.0 mi NE 8.1 mph - N/A   Overcast
10:53 AM 18.0 °F 4.8 °F 3.0 °F 52% 29.99 in 10.0 mi ENE 12.7 mph - N/A   Overcast
11:53 AM 18.0 °F 4.8 °F 1.9 °F 50% 29.97 in 10.0 mi NE 12.7 mph - N/A   Overcast
12:53 PM 19.0 °F 8.2 °F 3.0 °F 50% 29.96 in 10.0 mi NNE 9.2 mph - N/A   Overcast
1:53 PM 19.0 °F 8.2 °F -0.9 °F 42% 29.96 in 10.0 mi NNE 9.2 mph - N/A   Overcast
2:53 PM 19.9 °F 10.1 °F -0.0 °F 42% 29.93 in 10.0 mi ENE 8.1 mph - N/A   Overcast
3:53 PM 19.9 °F 9.3 °F 3.0 °F 48% 29.91 in 10.0 mi NE 9.2 mph - N/A   Overcast
4:53 PM 19.0 °F 6.1 °F 6.1 °F 57% 29.89 in 10.0 mi NE 12.7 mph - N/A   Clear
5:53 PM 18.0 °F 9.8 °F 6.1 °F 60% 29.88 in 10.0 mi Variable 5.8 mph - N/A   Partly Cloudy
6:53 PM 17.1 °F 4.3 °F 5.0 °F 59% 29.88 in 10.0 mi NE 11.5 mph - N/A   Clear
7:53 PM 17.1 °F 6.6 °F 3.9 °F 56% 29.88 in 10.0 mi NE 8.1 mph - N/A   Overcast
8:53 PM 17.1 °F 3.0 °F 3.0 °F 54% 29.88 in 10.0 mi ENE 13.8 mph - N/A   Overcast
9:53 PM 16.0 °F 1.7 °F 5.0 °F 62% 29.88 in 10.0 mi ENE 13.8 mph - N/A   Overcast
10:53 PM 16.0 °F 5.3 °F 5.0 °F 62% 29.88 in 10.0 mi NE 8.1 mph - N/A   Overcast
11:53 PM 16.0 °F 5.3 °F 3.9 °F 59% 29.87 in 10.0 mi NE 8.1 mph - N/A   Overcast